Location: Poughquag
(41.6090°N, 73.6820°W)
Time: 14:51:50
(UTC-05:00)

Vanguard 1 - Pass Details

Date: 29 November 2023
Orbit: 653 x 3825 km, 34.3° (Epoch: 03 March)

Event Time Altitude Azimuth Distance (km) Brightness Sun altitude
Rises 21:11:08 0° 260° (W) 7,020 14.9 -52.4°
Reaches altitude 10° 21:15:20 10° 258° (WSW) 6,289 14.5 -53.1°
Enters shadow 21:32:51 63° 227° (SW) 4,099 12.9 -56.1°
Maximum altitude 21:37:21 71° 181° (S) 3,956 - -56.9°
Drops below altitude 10° 21:58:29 10° 103° (ESE) 6,078 - -60.3°
Sets 22:02:28 0° 101° (E) 6,787 - -60.9°
